This demonstration page uses our WeatherBlox Daily Observations layout. Learn more.

Left ArrowRight Arrow

47.50024, -111.30081

Hourly Observations for January 19, 2020

Temp ( °F °C ) Dew Point ( °F °C ) Humidity (%) Winds ( mph kmh ) Pressure ( in mb ) Visibility ( mi km ) Precip ( " mm )
12:53 am 00:53 Clear 23 -5 14 -10 68 68 SW 12 19 30.50 1033 10 16 0.00 0.00
1:53 am 01:53 Clear 23 -5 15 -9.4 72 72 SW 12 19 30.49 1033 10 16 0.00 0.00
2:53 am 02:53 Clear 27 -2.8 18 -7.8 69 69 WSW 10 17 30.50 1033 10 16 0.00 0.00
3:53 am 03:53 Clear 26 -3.3 18 -7.8 71 71 SW 14 22 30.50 1033 10 16 0.00 0.00
4:53 am 04:53 Clear 29 -1.7 19 -7.2 66 66 SW 15 24 30.50 1033 10 16 0.00 0.00
5:53 am 05:53 Clear 30 -1.1 20 -6.7 66 66 SW 17 28 30.51 1033 10 16 0.00 0.00
6:53 am 06:53 Clear 30 -1.1 20 -6.7 66 66 SW 14 22 30.51 1033 10 16 0.00 0.00
7:53 am 07:53 Clear 31 -0.6 20 -6.7 64 64 SW 15 24 30.52 1034 10 16 0.00 0.00
8:53 am 08:53 Sunny 31 -0.6 20 -6.7 64 64 SW 13 20 30.53 1034 10 16 0.00 0.00
9:53 am 09:53 Sunny 35 1.7 22 -5.6 59 59 SSW 13 20 30.52 1033 10 16 0.00 0.00
10:53 am 10:53 Sunny 38 3.3 24 -4.4 57 57 SW 16 26 30.49 1033 10 16 0.00 0.00
11:53 am 11:53 Sunny 41 5 24 -4.4 51 51 SW 23 37 30.43 1031 10 16 0.00 0.00
12:53 pm 12:53 Sunny 43 6.1 24 -4.4 47 47 SW 22 35 30.40 1030 10 16 0.00 0.00
1:53 pm 13:53 Sunny 44 6.7 23 -5 43 43 SW 23 37 30.39 1029 10 16 0.00 0.00
2:53 pm 14:53 Sunny 45 7.2 23 -5 42 42 SW 21 33 30.36 1028 10 16 0.00 0.00
3:53 pm 15:53 Sunny 42 5.6 21 -6.1 43 43 SW 22 35 30.38 1029 10 16 0.00 0.00
4:53 pm 16:53 Sunny 40 4.4 21 -6.1 47 47 SW 15 24 30.36 1028 10 16 0.00 0.00
5:53 pm 17:53 Clear 33 0.6 20 -6.7 58 58 SSW 9 15 30.38 1029 10 16 0.00 0.00
6:53 pm 18:53 Clear 37 2.8 20 -6.7 50 50 SW 13 20 30.37 1028 10 16 0.00 0.00
7:53 pm 19:53 Clear 31 -0.6 19 -7.2 61 61 SSW 12 19 30.39 1029 10 16 0.00 0.00
8:53 pm 20:53 Clear 33 0.6 19 -7.2 56 56 SSW 10 17 30.37 1029 10 16 0.00 0.00
9:53 pm 21:53 Clear 33 0.6 18 -7.8 54 54 SSW 15 24 30.34 1027 10 16 0.00 0.00
10:53 pm 22:53 Clear 34 1.1 18 -7.8 52 52 SSW 15 24 30.31 1026 10 16 0.00 0.00
11:53 pm 23:53 Clear 37 2.8 17 -8.3 44 44 SSW 17 28 30.28 1025 10 16 0.00 0.00

Powered by AerisWeather